Regional Weather Roundup
Issued by NWS Wakefield, VA

Home | Current Version | Previous Version | Text Only | Print | Product List | Glossary Off
Versions: 1 2 3 4 5 6 7 8 9 10 11 12 13 14 15 16 17 18 19 20 21 22 23 24 25 26 27

000
ASUS41 KAKQ 270115
RWRAKQ

REGIONAL WEATHER ROUNDUP
NATIONAL WEATHER SERVICE WAKEFIELD VA
900 PM EDT FRI AUG 26 2016

Note: "fair" indicates few or no clouds below 12,000 feet with no
significant weather and/or obstructions to visibility. * = Denotes
station may not report precipitation (e.g., rain,snow,etc.),
thunder or fog.

VAZ042-051-052>054-056-270200-
NORTHERN VIRGINIA

CITY           SKY/WX    TMP DP  RH WIND       PRES   REMARKS
WASH NATIONAL  PTCLDY    89  71  55 N5        30.05R HX  95
DULLES         PTCLDY    83  69  62 CALM      30.06R
FORT BELVOIR   CLEAR     78  75  88 CALM      30.05R
QUANTICO       CLEAR     83  77  82 NW7       30.05R
FREDERICKSBRG*   N/A     82  77  86 CALM      30.04R
STAFFORD*      MOCLDY    79  76  91 CALM      30.10R
WARRENTON      PTCLDY    79  71  77 CALM      30.06R
CULPEPER*      CLOUDY    80  78  92 CALM      30.07R
MANASSAS*      CLEAR     81  77  89 CALM      30.06R
LEESBURG*      CLEAR     82  77  83 CALM      30.08R
WINCHESTER     CLEAR     77  70  78 CALM      30.10R
FRONT ROYAL*   FAIR      79  75  89 CALM      30.08R
LURAY*         FAIR      79  73  83 CALM      30.11R
$$

VAZ048-049-060>072-079>083-270200-
CENTRAL AND SOUTH CENTRAL VIRGINIA

CITY           SKY/WX    TMP DP  RH WIND       PRES   REMARKS
RICHMOND       PTCLDY    86  74  67 CALM      30.05R
CHESTERFIELD*  FAIR      84  64  51 CALM      30.07R
PETERSBURG*    CLEAR     80  78  91 CALM      30.06R
HANOVER        CLEAR     80  75  84 CALM      30.07R
TAPPAHANNOCK*  CLEAR     79  79 100 CALM      30.05S
QUINTON*       FAIR      82  78  89 CALM      30.04R
CHARLOTTSVILLE CLOUDY    80  73  79 CALM      30.08R
GORDONSVILLE*  FAIR      81  75  83 CALM      30.07R
ORANGE*          N/A     77  77 100 CALM      30.10R
LOUISA*        MOCLDY    82  79  89 NW5       30.07R
BUMPASS*       FAIR      79  78  96 CALM      30.06R
FARMVILLE*     CLEAR     80  80  99 CALM      30.06R
CREWE*         FAIR      78  78  98 CALM      30.06R
FORT PICKETT*  NOT AVBL
CHASE CITY*    FAIR      80  74  82 CALM      30.07R
CLARKSVILLE*   FAIR      82  75  78 CALM      30.05R
SOUTH HILL*    CLEAR     77  75  92 CALM      30.12R
LAWRENCEVILLE* FAIR      80  76  88 CALM      30.06R
EMPORIA*         N/A     79  73  83 CALM      30.06R
$$

VAZ088>098-270200-
SOUTHEAST VIRGINIA

CITY           SKY/WX    TMP DP  RH WIND       PRES   REMARKS
NORFOLK        CLEAR     85  73  67 CALM      30.04R
VIRGINIA BEACH PTCLDY    89  75  63 CALM      30.03R HX  99
NORFOLK NAVAL  PTCLDY    80  73  79 E3        30.05R
WEST POINT*    CLEAR     83  74  76 CALM      30.06R
SALUDA*        FAIR      80  74  82 CALM      30.04R
NEWPORT NEWS   CLEAR     80  73  79 CALM      30.04R
LANGLEY AFB    CLEAR     82  74  79 E2        30.04R
FORT EUSTIS    CLEAR     82  75  80 CALM      30.02R
WILLIAMSBURG*  CLEAR     82  75  78 CALM      30.05R
HR EXEC AP*    FAIR      75  72  88 CALM      30.06R
FRANKLIN*      CLEAR     81  76  85 CALM      30.05R
US460-WAKEFLD  CLEAR     80  76  87 CALM      30.04R
$$

VAZ020-022-025-037-045-270200-
WEST CENTRAL AND SOUTHWEST VIRGINIA

CITY           SKY/WX    TMP DP  RH WIND       PRES   REMARKS
STAUNTON*      CLOUDY    77  72  83 CALM      30.14R
WAYNESBORO*    FAIR      76  69  80 S3        30.14R
HOT SPRINGS VA CLEAR     74  64  69 CALM      30.28S
LYNCHBURG      CLEAR     76  72  87 CALM      30.11R
DANVILLE       CLEAR     78  75  90 CALM      30.08R
SOUTH BOSTON*  FAIR      81  78  90 CALM      30.06R
MARTINSVILLE   CLEAR     75  73  93 CALM      30.13R
ROANOKE        PTCLDY    84  71  65 CALM      30.13R
BLACKSBURG     CLEAR     76  71  82 CALM      30.22R
DUBLIN*        CLEAR     77  73  87 CALM      30.19S
MARION*        CLEAR     74  71  87 CALM      30.24R
HILLSVILLE*    CLEAR     77  70  79 CALM      30.22R
RICHLANDS*     FAIR      78  70  75 CALM      30.23R
WISE*          CLEAR     77  59  53 CALM      30.24R
ABINGDON*      CLEAR     80  68  67 CALM      30.18R
$$

MDZ021>025-VAZ099-100-270200-
SOUTHERN MARYLAND AND THE DELMARVA PENINSULA

CITY           SKY/WX    TMP DP  RH WIND       PRES   REMARKS
PATUXENT RIVER PTCLDY    79  74  84 CALM      30.04R
BAY BRIDGE APT CLEAR     82  73  74 CALM      30.05R
LEONARDTOWN    CLEAR     79  72  78 CALM      30.06S
DOVER          CLEAR     83  75  76 W5        30.03R
GEORGETOWN     CLEAR     79  73  82 CALM      30.05R
EASTON         CLEAR     82  77  83 CALM      30.08R
CAMBRIDGE      CLEAR     79  73  83 CALM      30.04R
SALISBURY      CLEAR     80  74  81 CALM      30.04R
OCEAN CITY     CLEAR     78  73  84 CALM      30.04R
WALLOPS ISLAND CLEAR     82  71  69 E6        30.05R
ACCOMACK*      CLEAR     78  73  86 CALM      30.04R
$$

NCZ012>017-030>032-270200-
NORTH CENTRAL AND EASTERN NORTH CAROLINA

CITY           SKY/WX    TMP DP  RH WIND       PRES   REMARKS
ROANOKE RAPIDS FAIR      79  77  94 CALM      30.05R
RALEIGH        PTCLDY    86  75  69 SE3       30.06R HX  95
ELIZABETH CITY CLEAR     82  75  79 CALM      30.05R
AHOSKIE*       CLEAR     78  76  92 CALM      30.05R
EDENTON*       CLEAR     85  73  66 S9        30.06R
CURRITUCK*       N/A     82  77  85 CALM      30.05R
KILL DEVIL HLS CLEAR     81  76  86 S3        30.05R
MANTEO         CLEAR     82  74  77 SW12      30.06R
CAPE HATTERAS  CLEAR     82  70  66 S7        30.06R
TARBORO*       FAIR      80  78  94 CALM      30.05R
GOLDSBORO      CLEAR     85  77  77 S5        30.05R HX  95
WASHINGTON     CLEAR     82  75  78 S3        30.06R
GREENVILLE     CLEAR     84  77  79 S5        30.07R
NEW BERN       CLEAR     80  73  79 S7        30.07R
WILMINGTON     CLEAR     81  71  71 SE6       30.06R
$$

VAZ048-270200-
ELSEWHERE

CITY           SKY/WX    TMP DP  RH WIND       PRES   REMARKS
HARRISBURG PA  PTCLDY    78  72  81 CALM      30.07R
BALTIMORE      PTCLDY    80  72  76 CALM      30.05R
ANNAPOLIS      CLEAR     83  76  79 NW3       30.04R
ANDREWS AFB    CLEAR     81  73  77 CALM      30.05R
PHILADELPHIA   CLEAR     87  64  46 NW9       30.04R
HENDERSON NC   CLEAR     78  73  85 CALM      30.07R
GREENSBORO     PTCLDY    85  70  60 N5        30.09R
ROCKY MOUNT    CLEAR     80  76  87 CALM      30.05R
$$

VAZ100-270200-
MARINE

STATION/POSITION TIME  TEMP    WIND        PRES    WAVE   SWELL
                       AIR SEA DIR/SP/G            HT/PER HT/PER
                 (UTC) (F)     (DEG/KT/KT) (MB)    (FT/S) (FT/S)
BRANDYWINE LGT   0000   85     330/  5/  6   N/A
CAPE MAY NJ      0000   82 76  310/  5/  6 1016.1R
LEWES DE         0000   82 76  320/  5/  6 1016.5R
OCEAN-CITY-INLET 0000   79 72  190/  3/  3 1017.2R
WACHAPREAGUE VA  0000   85 87  210/  3/  4 1017.0R
THOMAS POINT MD  0100   87 84   80/  2/  2 1018.9R
GOOSES REEF MD   0000   87 86   80/  2/  2 1017.3R   0
COVE POINT MD    0000   86     330/  1/  2 1017.4R
SOLOMONS ISLAND  0000   86 85  210/  4/  4   N/A
PINEY POINT MD   0000          160/  2/  2   N/A
POTOMAC MD       0000   86 84   CALM  /  2 1015.7R   0
CAMBRIDGE MD     0000   87 84  290/  1/  2 1016.0R
LEWISETTA VA     0000   86 84  200/  2/  2 1016.6R
RAPPAHANNOCK LGT 0000          200/  5/  5 1017.6R
STINGRAY PT      0000   87 87  130/  6/  8 1017.4R   0
YORK RVR RNG VA  0000   85     170/  5/  5 1016.5R
YORKTOWN VA      0000   87 83  110/  1/  2 1016.5R
JAMESTOWN VA     0000   87 86  110/  4/  6   N/A     0
DOMINION TERM VA 0000   86      50/  1/  3 1016.9S
KIPTOPEKE VA     0000      81  140/  3/  3   N/A
CHES BAY BRIDGE  0000   84 78   60/  3/  4 1016.8R
CAPE HENRY VA    0000   82     170/  3/  4   N/A
WILLOUBY STN VA  0000   85      CALM  /  1   N/A
CAPE HENRY BUOY  0012      79                N/A     2/ 9
1ST LANDING BUOY 0000   81 81  140/  4/  4 1016.4R   1/ 4
CAPE CHARLES BUO 0026      78                N/A     2/ 8
OFFSHORE WE BUOY 0021      80                N/A     2/ 7
64NM E OF VA BCH 0050   81 81  210/  8/ 10 1017.5R   2/ 8   2/ 8
DUCK PIER NC     0000   83 78  160/  7/  8 1016.5R
44100 DUCK FRF   0005      80                N/A     2/ 7
44056 DUCK FRF   0011      80                N/A     2/ 8
OREGON INLET NC  0000   82 82  180/  8/ 10 1017.3R
HATTERAS NC      0000   82 83  160/  6/  7 1017.4F
DIAMOND SHLS NC  0050   82 85  150/  6/  8 1018.2R   2/ 8   2/ 8
CAPE LOOKOUT NC  0100   81     140/  8/  9 1017.9R
$$




USA.gov is the U.S. government's official web portal to all federal, state and local government web resources and services.